Location: Alafon
(8.4500°N, 4.2333°E)
Time: 18:27:28
(UTC+00:00)

deb Explorer IX - Pass Details

Date: 25 July 2021
Orbit: 545 x 1091 km, 38.8° (Epoch: 20 September)

Event Time Altitude Azimuth Distance (km) Brightness Sun altitude
Rises 11:10:09 0° 203° (SSW) 2,784 ? 75.4°
Reaches altitude 10° 11:12:43 10° 188° (S) 1,944 ? 75.8°
Maximum altitude 11:16:15 23° 135° (SE) 1,384 ? 76.3°
Drops below altitude 10° 11:20:09 10° 84° (E) 2,170 ? 76.8°
Sets 11:23:11 0° 70° (ENE) 3,200 ? 77.2°
